Location: New Canada
(47.1017°N, 68.5042°W)
Time: 06:53:29
(UTC+00:00)

EO-79 - Pass Details

Date: 06 April 2023
Orbit: 578 x 593 km, 98.0° (Epoch: 02 June)

Event Time Altitude Azimuth Distance (km) Brightness Sun altitude
Rises 06:26:50 0° 18° (NNE) 2,824 ? -31.2°
Reaches altitude 10° 06:29:04 10° 24° (NNE) 1,916 ? -31.0°
Enters shadow 06:31:27 30° 44° (NE) 1,055 ? -30.8°
